Rochelle, IL

2:37 AM CDT on July 22, 2017 (GMT -0500)
Rochelle

Weather History for KRPJ - January, 2014

Change the Weather History Date:

Wednesday, January 15, 2014

  Actual Average (KRFD) Record (KRFD)
Temperature  
Mean Temperature 15 °F -  
Max Temperature 20 °F 26 °F 55 °F (1953)
Min Temperature 10 °F 8 °F -24 °F (1979)
Degree Days  
Heating Degree Days 50    
Moisture  
Dew Point 9 °F    
Average Humidity 77    
Maximum Humidity 86    
Minimum Humidity 65    
Precipitation  
Precipitation 0.00 in - - ()
Sea Level Pressure  
Sea Level Pressure 30.00 in    
Wind  
Wind Speed 12 mph (West)    
Max Wind Speed 20 mph    
Max Gust Speed 24 mph    
Visibility 10 miles    
Events Snow    
Averages and records for this station are not official NWS values.
T = Trace of Precipitation, MM = Missing Value Source: NWS Daily Summary

Daily Weather History Graph

Daily Weather History Graph

Search for Another Location

Airport or City:

Trip Planner

Search our weather history database for the weather conditions in past years. The results will help you decide how hot, cold, wet, or windy it might be!

Date:

Astronomy

Jan. 15, 2014 Rise Set
Actual Time 7:21 AM CST 4:50 PM CST
Civil Twilight 6:50 AM CST 5:21 PM CST
Nautical Twilight 6:16 AM CST 5:55 PM CST
Astronomical Twilight 5:42 AM CST 6:28 PM CST
Moon 4:49 PM CST (1/15) 6:36 AM CST (1/15)
Length of Visible Light 10h 30m
Length of Day
9h 28m
Full, 100% of the Moon is Illuminated
Jan 15
Full
Jan 15
Full
Jan 23
Last Quarter
Jan 30
New
Feb 6
First Quarter

Hourly Weather History & Observations

Time (CST) Temp. Windchill Dew Point Humidity Pressure Visibility Wind Dir Wind Speed Gust Speed Precip Events Conditions
12:15 AM 18.5 °F 3.8 °F 12.6 °F 78% 29.94 in 10.0 mi WNW 16.1 mph 24.2 mph N/A   Overcast
12:35 AM 18.5 °F 4.3 °F 12.7 °F 78% 29.95 in 10.0 mi WNW 15.0 mph 20.7 mph N/A   Overcast
12:55 AM 18.5 °F 4.3 °F 12.4 °F 77% 29.95 in 10.0 mi NW 15.0 mph 21.9 mph N/A   Overcast
1:15 AM 18.5 °F 4.9 °F 12.0 °F 76% 29.96 in 10.0 mi NW 13.8 mph 24.2 mph N/A Snow Light Snow
1:35 AM 18.1 °F 5.0 °F 12.0 °F 77% 29.97 in 10.0 mi NW 12.7 mph 16.1 mph N/A Snow Light Snow
1:55 AM 17.2 °F 3.3 °F 11.3 °F 78% 29.98 in 10.0 mi WNW 13.8 mph 19.6 mph N/A   Overcast
2:15 AM 16.3 °F 2.7 °F 10.4 °F 77% 29.99 in 10.0 mi NW 12.7 mph 19.6 mph N/A   Overcast
2:35 AM 15.8 °F 2.7 °F 10.0 °F 78% 30.00 in 10.0 mi WNW 11.5 mph 17.3 mph N/A   Overcast
2:55 AM 15.3 °F 2.8 °F 9.5 °F 78% 30.00 in 10.0 mi WNW 10.4 mph - N/A   Overcast
3:15 AM 14.9 °F 0.9 °F 9.3 °F 79% 30.01 in 10.0 mi WNW 12.7 mph - N/A   Overcast
3:35 AM 14.5 °F 1.1 °F 8.8 °F 78% 30.01 in 10.0 mi WNW 11.5 mph - N/A   Overcast
3:55 AM 14.0 °F -0.2 °F 8.4 °F 78% 30.01 in 10.0 mi NW 12.7 mph - N/A   Scattered Clouds
4:15 AM 13.5 °F 1.3 °F 8.1 °F 79% 30.01 in 10.0 mi WNW 9.2 mph - N/A   Scattered Clouds
4:35 AM 12.9 °F -0.2 °F 7.7 °F 80% 30.02 in 10.0 mi WNW 10.4 mph - N/A   Clear
4:55 AM 12.7 °F -1.1 °F 7.5 °F 80% 30.02 in 10.0 mi WNW 11.5 mph - N/A   Clear
5:15 AM 12.4 °F -0.8 °F 7.3 °F 80% 30.03 in 10.0 mi WNW 10.4 mph - N/A   Clear
5:35 AM 12.2 °F -1.0 °F 7.2 °F 80% 30.04 in 10.0 mi WNW 10.4 mph - N/A   Clear
5:55 AM 12.2 °F -1.0 °F 7.0 °F 80% 30.04 in 10.0 mi WNW 10.4 mph - N/A   Clear
6:15 AM 12.0 °F -1.3 °F 6.8 °F 80% 30.05 in 10.0 mi WNW 10.4 mph - N/A   Scattered Clouds
6:35 AM 11.8 °F 0.3 °F 6.8 °F 80% 30.06 in 10.0 mi WNW 8.1 mph - N/A   Clear
6:55 AM 11.3 °F -0.4 °F 6.8 °F 82% 30.06 in 10.0 mi WNW 8.1 mph - N/A   Clear
7:15 AM 11.1 °F -1.6 °F 6.8 °F 83% 30.06 in 10.0 mi WNW 9.2 mph - N/A   Clear
7:35 AM 10.9 °F 0.2 °F 6.6 °F 83% 30.06 in 10.0 mi West 6.9 mph - N/A   Clear
7:55 AM 11.3 °F -0.4 °F 6.8 °F 82% 30.07 in 10.0 mi West 8.1 mph - N/A   Clear
8:15 AM 11.1 °F -1.6 °F 5.9 °F 80% 30.09 in 10.0 mi West 9.2 mph - N/A   Clear
8:35 AM 12.0 °F -1.3 °F 6.8 °F 80% 30.09 in 10.0 mi West 10.4 mph - N/A   Clear
8:55 AM 13.1 °F -1.4 °F 6.8 °F 76% 30.09 in 10.0 mi West 12.7 mph - N/A   Clear
9:15 AM 13.1 °F -1.4 °F 6.4 °F 75% 30.09 in 10.0 mi West 12.7 mph - N/A   Clear
9:35 AM 13.8 °F 1.0 °F 6.6 °F 73% 30.09 in 10.0 mi West 10.4 mph - N/A   Clear
9:55 AM 13.8 °F -0.5 °F 6.8 °F 74% 30.09 in 10.0 mi West 12.7 mph - N/A   Scattered Clouds
10:15 AM 14.0 °F -0.8 °F 6.6 °F 72% 30.10 in 10.0 mi West 13.8 mph - N/A   Scattered Clouds
10:35 AM 14.9 °F 1.6 °F 7.3 °F 72% 30.10 in 10.0 mi West 11.5 mph - N/A   Scattered Clouds
10:55 AM 15.8 °F 3.4 °F 7.2 °F 69% 30.10 in 10.0 mi WNW 10.4 mph - N/A   Scattered Clouds
11:15 AM 15.6 °F 2.5 °F 6.8 °F 68% 30.09 in 10.0 mi NW 11.5 mph - N/A   Mostly Cloudy
11:35 AM 16.3 °F 4.9 °F 7.0 °F 67% 30.08 in 10.0 mi WNW 9.2 mph - N/A   Scattered Clouds
11:55 AM 16.5 °F 5.1 °F 7.0 °F 66% 30.07 in 10.0 mi West 9.2 mph - N/A   Scattered Clouds
12:15 PM 16.7 °F 2.0 °F 7.3 °F 67% 30.07 in 10.0 mi West 15.0 mph - N/A   Mostly Cloudy
12:35 PM 16.7 °F 2.6 °F 8.2 °F 69% 30.07 in 10.0 mi West 13.8 mph - N/A   Scattered Clouds
12:55 PM 17.2 °F 6.0 °F 7.7 °F 66% 30.06 in 10.0 mi West 9.2 mph - N/A   Clear
1:15 PM 17.4 °F 5.4 °F 8.1 °F 67% 30.05 in 10.0 mi West 10.4 mph - N/A   Clear
1:35 PM 17.6 °F 5.7 °F 7.7 °F 65% 30.05 in 10.0 mi West 10.4 mph - N/A   Clear
1:55 PM 17.4 °F 9.1 °F 7.7 °F 66% 30.04 in 10.0 mi West 5.8 mph - N/A   Clear
2:15 PM 17.2 °F 5.2 °F 7.7 °F 66% 30.04 in 10.0 mi WSW 10.4 mph - N/A   Scattered Clouds
2:35 PM 17.1 °F 5.0 °F 7.5 °F 66% 30.04 in 10.0 mi WSW 10.4 mph - N/A   Scattered Clouds
2:55 PM 16.9 °F 3.4 °F 7.9 °F 68% 30.04 in 10.0 mi WSW 12.7 mph - N/A   Clear
3:15 PM 16.7 °F 3.8 °F 7.9 °F 68% 30.04 in 10.0 mi WSW 11.5 mph - N/A   Clear
3:35 PM 16.3 °F 2.1 °F 8.1 °F 70% 30.04 in 10.0 mi WSW 13.8 mph - N/A   Clear
3:55 PM 16.0 °F 1.7 °F 8.2 °F 72% 30.04 in 10.0 mi WSW 13.8 mph - N/A   Clear
4:15 PM 15.4 °F 1.6 °F 8.1 °F 73% 30.04 in 10.0 mi WSW 12.7 mph - N/A   Clear
4:35 PM 14.7 °F 0.7 °F 7.7 °F 74% 30.04 in 10.0 mi West 12.7 mph - N/A   Clear
4:55 PM 14.0 °F 2.0 °F 7.5 °F 75% 30.03 in 10.0 mi West 9.2 mph - N/A   Clear
5:15 PM 13.6 °F 3.5 °F 7.5 °F 77% 30.03 in 10.0 mi West 6.9 mph - N/A   Clear
5:35 PM 12.9 °F 6.9 °F 7.2 °F 78% 30.02 in 10.0 mi WSW 3.5 mph - N/A   Scattered Clouds
5:55 PM 11.3 °F 5.1 °F 5.7 °F 78% 30.01 in 10.0 mi South 3.5 mph - N/A   Clear
6:15 PM 11.1 °F 3.1 °F 6.6 °F 82% 30.00 in 10.0 mi South 4.6 mph - N/A   Scattered Clouds
6:35 PM 12.2 °F 4.3 °F 8.2 °F 84% 30.00 in 10.0 mi SSW 4.6 mph - N/A   Scattered Clouds
6:55 PM 12.9 °F 3.8 °F 9.3 °F 86% 29.99 in 10.0 mi SSW 5.8 mph - N/A   Mostly Cloudy
7:15 PM 13.8 °F 2.7 °F 10.0 °F 85% 29.98 in 10.0 mi South 8.1 mph - N/A   Scattered Clouds
7:35 PM 14.2 °F 2.2 °F 10.4 °F 85% 29.96 in 10.0 mi South 9.2 mph - N/A   Clear
7:55 PM 14.9 °F 2.3 °F 11.3 °F 86% 29.94 in 10.0 mi SSW 10.4 mph - N/A   Scattered Clouds
8:15 PM 15.6 °F 3.2 °F 11.5 °F 84% 29.92 in 10.0 mi SSW 10.4 mph - N/A   Mostly Cloudy
8:35 PM 16.5 °F 3.0 °F 12.0 °F 82% 29.91 in 10.0 mi SSW 12.7 mph - N/A   Overcast
8:55 PM 17.1 °F 3.0 °F 12.2 °F 81% 29.90 in 10.0 mi SSW 13.8 mph - N/A   Overcast
9:15 PM 17.2 °F 1.7 °F 12.6 °F 82% 29.89 in 10.0 mi SSW 17.3 mph - N/A   Overcast
9:35 PM 17.6 °F 1.7 °F 12.7 °F 81% 29.88 in 10.0 mi SSW 18.4 mph - N/A   Overcast
9:55 PM 17.8 °F 3.4 °F 12.9 °F 81% 29.88 in 10.0 mi SSW 15.0 mph - N/A   Overcast
10:15 PM 18.5 °F 3.8 °F 13.6 °F 81% 29.87 in 10.0 mi SSW 16.1 mph - N/A   Overcast
10:35 PM 18.9 °F 3.3 °F 13.6 °F 80% 29.84 in 10.0 mi South 18.4 mph - N/A   Mostly Cloudy
10:55 PM 19.2 °F 3.4 °F 14.0 °F 80% 29.84 in 10.0 mi SSW 19.6 mph 24.2 mph N/A   Overcast
11:15 PM 19.6 °F 5.2 °F 14.2 °F 80% 29.83 in 10.0 mi SSW 16.1 mph 23.0 mph N/A   Overcast
11:35 PM 20.1 °F 4.6 °F 14.7 °F 80% 29.80 in 10.0 mi South 19.6 mph - N/A   Overcast
11:55 PM 20.3 °F 5.2 °F 14.9 °F 80% 29.79 in 10.0 mi South 18.4 mph 24.2 mph N/A   Overcast